Location: ???????
(52.3000°N, 54.4667°E)
Time: 11:46:51
(UTC+00:00)

Cosmos 2237 Rocket - Pass Details

Date: 24 January 2020
Orbit: 836 x 848 km, 71.0° (Epoch: 27 February)

Event Time Altitude Azimuth Distance (km) Brightness Sun altitude
Rises 13:31:59 0° 328° (NNW) 3,401 5.5 -6.1°
Reaches altitude 10° 13:34:26 10° 329° (NNW) 2,462 4.7 -6.4°
Maximum altitude 13:40:06 87° 58° (ENE) 846 2.2 -7.2°
Drops below altitude 10° 13:45:44 10° 150° (SSE) 2,446 4.5 -8.0°
Sets 13:48:09 0° 150° (SSE) 3,378 5.2 -8.4°
